Date String (YYYY-MM-DD hh:mm:ss) UTC,Instrument flags,Ambient pressure (hPa),Sample flow (lpm),Bypass flow (lpm),Sample temperature (°C),Ambient temperature (°C),ASC tube jacket temperature (°C),LED temperature (°C),Box temperature (°C),Sample RH (%),Span deviation,Mass concentration (μg/m³),Mass concentration (μg/m³),Mass concentration (μg/m³)
DateTimeUTC,F1_M11,P_M11,Q1_M11,Q2_M11,T1_M11,T2_M11,T3_M11,T4_M11,T5_M11,U1_M11,ZSPAN_M11,X0_M11,X2_M11,X1_M11
2022-10-20 10:00:00,,0829.6,5.00,0.00,27.8,26.0,00.0,36.7,29.5,08.2,0000.0,0009.05,0003.35,0002.68
2022-10-20 10:01:00,,0829.6,5.01,0.00,27.8,26.0,00.0,36.7,29.6,08.2,0000.0,0008.78,0003.34,0002.67
2022-10-20 10:02:00,,0829.5,4.98,0.00,27.8,26.0,00.0,36.7,29.5,08.2,0000.0,0008.69,0003.34,0002.66
2022-10-20 10:03:00,,0829.5,5.00,0.00,27.7,26.0,00.0,36.7,29.5,08.2,0000.0,0008.44,0003.34,0002.63
2022-10-20 10:04:00,,0829.6,5.00,0.00,27.7,25.9,00.0,36.7,29.4,08.2,0000.0,0009.21,0003.35,0002.61
2022-10-20 10:05:00,,0829.5,4.99,0.00,27.7,25.9,00.0,36.7,29.4,08.2,0000.0,0009.13,0003.34,0002.60
2022-10-20 10:06:00,,0829.5,5.00,0.00,27.7,25.9,00.0,36.7,29.4,08.3,0000.0,0009.08,0003.33,0002.59
2022-10-20 10:07:00,,0829.5,5.01,0.00,27.7,25.9,00.0,36.7,29.4,08.3,0000.0,0008.79,0003.33,0002.59
2022-10-20 10:08:00,,0829.5,4.98,0.00,27.7,25.9,00.0,36.7,29.4,08.3,0000.0,0008.67,0003.31,0002.57
2022-10-20 10:09:00,,0829.5,5.01,0.00,27.7,25.9,00.0,36.7,29.4,08.3,0000.0,0008.62,0003.31,0002.55
2022-10-20 10:10:00,,0829.5,4.99,0.00,27.7,25.9,00.0,36.7,29.3,08.3,0000.0,0008.62,0003.31,0002.54
2022-10-20 10:11:00,,0829.4,5.01,0.00,27.7,25.9,00.0,36.6,29.4,08.3,0000.0,0008.37,0003.27,0002.52
2022-10-20 10:12:00,,0829.4,5.01,0.00,27.7,25.9,00.0,36.6,29.4,08.3,0000.0,0007.76,0003.23,0002.51
2022-10-20 10:13:00,,0829.4,4.98,0.00,27.7,25.9,00.0,36.6,29.3,08.2,0000.0,0008.39,0003.21,0002.50
2022-10-20 10:14:00,,0829.3,5.01,0.00,27.6,25.9,00.0,36.6,29.4,08.2,0000.0,0008.42,0003.19,0002.49
2022-10-20 10:15:00,,0829.3,4.98,0.00,27.6,25.9,00.0,36.6,29.4,08.2,0000.0,0007.52,0003.19,0002.48
2022-10-20 10:16:00,,0829.4,5.01,0.00,27.6,25.9,00.0,36.6,29.5,08.2,0000.0,0007.52,0003.20,0002.48
2022-10-20 10:17:00,,0829.2,4.98,0.00,27.6,25.9,00.0,36.6,29.4,08.3,0000.0,0007.61,0003.22,0002.47
2022-10-20 10:18:00,,0829.2,5.01,0.00,27.6,25.9,00.0,36.6,29.4,08.3,0000.0,0008.29,0003.21,0002.45
2022-10-20 10:19:00,,0829.2,5.00,0.00,27.6,25.9,00.0,36.6,29.4,08.3,0000.0,0008.25,0003.20,0002.40
2022-10-20 10:20:00,,0829.3,5.00,0.00,27.6,25.9,00.0,36.6,29.4,08.3,0000.0,0008.14,0003.18,0002.36
2022-10-20 10:21:00,,0829.3,4.99,0.00,27.6,25.9,00.0,36.6,29.4,08.2,0000.0,0008.06,0003.11,0002.29
2022-10-20 10:22:00,,0829.3,5.01,0.00,27.6,25.9,00.0,36.6,29.5,08.1,0000.0,0008.04,0003.06,0002.23
2022-10-20 10:23:00,,0829.2,5.00,0.00,27.6,25.9,00.0,36.6,29.5,08.0,0000.0,0008.07,0003.09,0002.21
2022-10-20 10:24:00,,0829.2,5.00,0.00,27.6,25.9,00.0,36.5,29.5,08.1,0000.0,0007.37,0003.04,0002.17
2022-10-20 10:25:00,,0829.2,4.99,0.00,27.6,25.9,00.0,36.5,29.5,08.2,0000.0,0006.99,0002.94,0002.09
2022-10-20 10:26:00,,0829.2,5.01,0.00,27.6,25.9,00.0,36.5,29.5,08.2,0000.0,0006.76,0002.81,0002.01
2022-10-20 10:27:00,,0829.1,5.00,0.00,27.6,25.9,00.0,36.5,29.5,08.2,0000.0,0006.08,0002.66,0001.95
2022-10-20 10:28:00,,0829.1,5.00,0.00,27.6,25.9,00.0,36.5,29.5,08.2,0000.0,0005.69,0002.56,0001.87
2022-10-20 10:29:00,,0829.0,5.00,0.00,27.6,25.9,00.0,36.5,29.4,08.1,0000.0,0004.20,0002.48,0001.81
2022-10-20 10:30:00,,0829.1,5.00,0.00,27.6,25.9,00.0,36.5,29.4,08.2,0000.0,0005.03,0002.35,0001.76
2022-10-20 10:31:00,,0829.1,5.00,0.00,27.6,25.9,00.0,36.5,29.4,08.2,0000.0,0005.13,0002.33,0001.72
2022-10-20 10:32:00,,0829.1,5.00,0.00,27.6,25.8,00.0,36.5,29.3,08.2,0000.0,0005.12,0002.29,0001.69
2022-10-20 10:33:00,,0829.0,5.00,0.00,27.6,25.8,00.0,36.5,29.4,08.2,0000.0,0005.08,0002.26,0001.65
2022-10-20 10:34:00,,0829.0,5.00,0.00,27.6,25.8,00.0,36.5,29.3,08.2,0000.0,0005.50,0002.16,0001.58
2022-10-20 10:35:00,,0828.9,5.00,0.00,27.6,25.8,00.0,36.5,29.3,08.2,0000.0,0006.57,0002.15,0001.55
2022-10-20 10:36:00,,0828.9,5.00,0.00,27.5,25.8,00.0,36.5,29.3,08.2,0000.0,0007.45,0002.18,0001.56
2022-10-20 10:37:00,,0828.9,5.00,0.00,27.5,25.8,00.0,36.5,29.4,08.1,0000.0,0007.55,0002.21,0001.58
2022-10-20 10:38:00,,0828.9,5.00,0.00,27.5,25.8,00.0,36.5,29.4,08.0,0000.0,0007.62,0002.25,0001.60
2022-10-20 10:39:00,,0828.9,5.00,0.00,27.5,25.8,00.0,36.4,29.3,08.1,0000.0,0007.60,0002.28,0001.63
2022-10-20 10:40:00,,0828.9,5.00,0.00,27.5,25.8,00.0,36.4,29.3,08.1,0000.0,0007.67,0002.34,0001.65
2022-10-20 10:41:00,,0828.9,4.98,0.00,27.5,25.8,00.0,36.4,29.3,08.0,0000.0,0006.75,0002.36,0001.67
2022-10-20 10:42:00,,0828.9,5.01,0.00,27.5,25.8,00.0,36.4,29.3,08.0,0000.0,0007.25,0002.37,0001.71
2022-10-20 10:43:00,,0828.8,5.01,0.00,27.5,25.8,00.0,36.4,29.3,08.0,0000.0,0008.00,0002.47,0001.75
2022-10-20 10:44:00,,0829.2,5.00,0.00,27.5,25.7,00.0,36.4,29.2,08.0,0000.0,0008.19,0002.55,0001.80
2022-10-20 10:45:00,,0829.3,5.00,0.00,27.5,25.7,00.0,36.4,29.3,08.1,0000.0,0008.47,0002.60,0001.85
2022-10-20 10:46:00,,0829.0,5.00,0.00,27.5,25.7,00.0,36.4,29.3,08.1,0000.0,0007.95,0002.63,0001.89
2022-10-20 10:47:00,,0828.8,5.00,0.00,27.5,25.7,00.0,36.4,29.2,08.1,0000.0,0008.30,0002.70,0001.95
2022-10-20 10:48:00,,0828.7,5.00,0.00,27.5,25.7,00.0,36.4,29.2,08.1,0000.0,0008.30,0002.77,0002.01
2022-10-20 10:49:00,,0828.7,5.00,0.00,27.5,25.7,00.0,36.4,29.2,08.0,0000.0,0008.47,0002.84,0002.07
2022-10-20 10:50:00,,0828.7,5.00,0.00,27.4,25.7,00.0,36.4,29.2,08.0,0000.0,0008.79,0002.92,0002.10
2022-10-20 10:51:00,,0828.7,5.00,0.00,27.4,25.7,00.0,36.4,29.2,08.0,0000.0,0008.81,0002.97,0002.16
2022-10-20 10:52:00,,0828.7,5.00,0.00,27.4,25.7,00.0,36.4,29.2,08.0,0000.0,0008.91,0003.05,0002.22
2022-10-20 10:53:00,,0828.7,5.00,0.00,27.4,25.7,00.0,36.4,29.2,08.0,0000.0,0008.72,0003.10,0002.27
2022-10-20 10:54:00,,0828.7,5.00,0.00,27.4,25.7,00.0,36.3,29.2,08.1,0000.0,0008.48,0003.13,0002.32
2022-10-20 10:55:00,,0828.7,5.00,0.00,27.4,25.7,00.0,36.3,29.3,08.0,0000.0,0008.40,0003.14,0002.38
2022-10-20 10:56:00,,0828.7,5.00,0.00,27.4,25.7,00.0,36.3,29.3,08.0,0000.0,0008.27,0003.19,0002.44
2022-10-20 10:57:00,,0828.8,4.98,0.00,27.4,25.7,00.0,36.3,29.2,08.0,0000.0,0008.40,0003.24,0002.50
2022-10-20 10:58:00,,0829.1,5.02,0.00,27.4,25.6,00.0,36.3,29.1,08.0,0000.0,0007.77,0003.24,0002.53
2022-10-20 10:59:00,,0829.0,5.00,0.00,27.4,25.6,00.0,36.3,29.2,08.0,0000.0,0007.74,0003.25,0002.54
